Weather History for Gaylord, MI

Change the Weather History Date:

Monday, May 13, 2013

  Actual Average Record
Temperature  
Mean Temperature 37 °F -  
Max Temperature 48 °F 64 °F 84 °F (1961)
Min Temperature 28 °F 38 °F 25 °F (1984)
Degree Days  
Heating Degree Days 28    
Moisture  
Dew Point 22 °F    
Average Humidity 58    
Maximum Humidity 85    
Minimum Humidity 29    
Precipitation  
Precipitation 0.00 in - - ()
Sea Level Pressure  
Sea Level Pressure 30.10 in    
Wind  
Wind Speed 6 mph (West)    
Max Wind Speed 13 mph    
Max Gust Speed 24 mph    
Visibility 10 miles    
Events      
Averages and records for this station are not official NWS values.
T = Trace of Precipitation, MM = Missing Value Source: NWS Daily Summary

Daily Weather History Graph

Daily Weather History Graph

Search for Another Location

Airport:

Trip Planner

Search our weather history database for the weather conditions in past years. The results will help you decide how hot, cold, wet, or windy it might be!

Date:

Astronomy

May. 13, 2013 Rise Set
Actual Time 6:11 AM EDT 8:59 PM EDT
Civil Twilight 5:37 AM EDT 9:33 PM EDT
Nautical Twilight 4:54 AM EDT 10:16 PM EDT
Astronomical Twilight 4:04 AM EDT 11:07 PM EDT
Moon 8:56 AM EDT (5/13) No Moon Set
Length of Visible Light 15h 55m
Length of Day
14h 47m
Waxing Crescent, 12% of the Moon is Illuminated
May 13
Waxing Crescent
May 18
First Quarter
May 25
Full
May 31
Last Quarter
Jun 8
New

Hourly Weather History & Observations

Time (EDT) Temp. Windchill Dew Point Humidity Pressure Visibility Wind Dir Wind Speed Gust Speed Precip Events Conditions
12:53 AM 30.0 °F 25.2 °F 21.9 °F 72% 30.07 in 10.0 mi WNW 4.6 mph - N/A   Clear
1:53 AM 28.9 °F 22.8 °F 23.0 °F 78% 30.07 in 10.0 mi Variable 5.8 mph - N/A   Clear
2:53 AM 28.9 °F 23.9 °F 23.0 °F 78% 30.07 in 10.0 mi West 4.6 mph - N/A   Clear
3:53 AM 28.9 °F 22.8 °F 24.1 °F 82% 30.07 in 10.0 mi West 5.8 mph - N/A   Clear
4:53 AM 28.9 °F 23.9 °F 24.1 °F 82% 30.08 in 10.0 mi West 4.6 mph - N/A   Clear
5:53 AM 28.9 °F 22.8 °F 25.0 °F 85% 30.08 in 10.0 mi West 5.8 mph - N/A   Clear
6:53 AM 30.0 °F 26.5 °F 25.0 °F 82% 30.09 in 10.0 mi West 3.5 mph - N/A   Clear
7:53 AM 32.0 °F 25.6 °F 27.0 °F 82% 30.12 in 10.0 mi WNW 6.9 mph - N/A   Clear
8:53 AM 35.1 °F 28.6 °F 27.0 °F 72% 30.13 in 10.0 mi WNW 8.1 mph - N/A   Clear
9:53 AM 39.0 °F 34.0 °F 26.1 °F 60% 30.14 in 10.0 mi NW 6.9 mph - N/A   Clear
10:53 AM 39.9 °F 33.4 °F 21.0 °F 47% 30.14 in 10.0 mi WNW 10.4 mph 17.3 mph N/A   Overcast
11:53 AM 42.1 °F 36.6 °F 21.0 °F 43% 30.14 in 10.0 mi West 9.2 mph - N/A   Mostly Cloudy
12:53 PM 44.1 °F 37.7 °F 21.0 °F 40% 30.15 in 10.0 mi West 12.7 mph 24.2 mph N/A   Mostly Cloudy
1:53 PM 46.0 °F 42.5 °F 19.9 °F 35% 30.14 in 10.0 mi Variable 6.9 mph 16.1 mph N/A   Scattered Clouds
2:53 PM 46.0 °F 43.9 °F 19.0 °F 34% 30.14 in 10.0 mi Variable 4.6 mph - N/A   Clear
4:53 PM 46.9 °F - 17.1 °F 30% 30.12 in 10.0 mi West 8.1 mph - N/A   Clear
5:53 PM 46.0 °F 41.4 °F 15.1 °F 29% 30.11 in 10.0 mi WNW 9.2 mph - N/A   Clear
6:53 PM 46.0 °F 41.0 °F 15.1 °F 29% 30.12 in 10.0 mi West 10.4 mph - N/A   Clear
8:53 PM 42.1 °F 40.2 °F 19.9 °F 41% 30.08 in 10.0 mi SW 3.5 mph - N/A   Clear
9:53 PM 41.0 °F 39.0 °F 23.0 °F 49% 30.07 in 10.0 mi SSW 3.5 mph - N/A   Clear
10:53 PM 39.0 °F 35.7 °F 24.1 °F 55% 30.07 in 10.0 mi South 4.6 mph - N/A   Clear
11:53 PM 39.0 °F 35.7 °F 27.0 °F 62% 30.06 in 10.0 mi South 4.6 mph - N/A   Mostly Cloudy